| time (UTC) | temp F | wind direction | speed MPH | gust MPH | rain 1hr in | rain 24hr in | rain mn in | humidity % | barometer mb |
| 20260831030611 | 85 | 151 | 0.0 | 2.0 | 0.00 | 0.00 | 0.00 | 71 | 1013.9 |
| 20260831030110 | 86 | 204 | 0.0 | 3.0 | 0.00 | 0.00 | 0.00 | 70 | 1014.0 |
| 20260831025609 | 86 | 120 | 1.0 | 3.0 | 0.00 | 0.00 | 0.00 | 69 | 1013.8 |
| 20260831025104 | 86 | 209 | 0.0 | 2.0 | 0.00 | 0.00 | 0.00 | 69 | 1013.8 |
| 20260831024600 | 86 | 151 | 0.0 | 5.0 | 0.00 | 0.00 | 0.00 | 68 | 1013.5 |
| 20260831024058 | 86 | 159 | 2.0 | 2.0 | 0.00 | 0.00 | 0.00 | 68 | 1013.6 |
| 20260831023551 | 87 | 140 | 0.0 | 3.0 | 0.00 | 0.00 | 0.00 | 67 | 1013.4 |
| 20260831023051 | 87 | 154 | 0.0 | 3.0 | 0.00 | 0.00 | 0.00 | 67 | 1013.5 |
| 20260831022551 | 87 | 154 | 0.0 | 0.0 | 0.00 | 0.00 | 0.00 | 66 | 1013.3 |
| 20260831022041 | 87 | 168 | 1.0 | 4.0 | 0.00 | 0.00 | 0.00 | 65 | 1013.2 |
| 20260831021539 | 87 | 148 | 2.0 | 3.0 | 0.00 | 0.00 | 0.00 | 64 | 1013.2 |
| 20260831021036 | 87 | 195 | 2.0 | 3.0 | 0.00 | 0.00 | 0.00 | 63 | 1013.1 |
| 20260831020531 | 88 | 232 | 0.0 | 3.0 | 0.00 | 0.00 | 0.00 | 62 | 1013.1 |
| 20260831020026 | 88 | 154 | 0.0 | 3.0 | 0.00 | 0.00 | 0.00 | 61 | 1012.9 |
| 20260831015521 | 88 | 145 | 1.0 | 5.0 | 0.00 | 0.00 | 0.00 | 60 | 1012.9 |
| 20260831015016 | 88 | 144 | 0.0 | 3.0 | 0.00 | 0.00 | 0.00 | 60 | 1012.7 |
| 20260831014510 | 89 | 157 | 0.0 | 4.0 | 0.00 | 0.00 | 0.00 | 59 | 1012.5 |
| 20260831014007 | 89 | 90 | 2.0 | 4.0 | 0.00 | 0.00 | 0.00 | 58 | 1012.6 |
| 20260831013502 | 89 | 124 | 2.0 | 6.0 | 0.00 | 0.00 | 0.00 | 58 | 1012.9 |
| 20260831012955 | 89 | 111 | 0.0 | 3.0 | 0.00 | 0.00 | 0.00 | 57 | 1012.6 |
| 20260831012450 | 89 | 126 | 0.0 | 0.0 | 0.00 | 0.00 | 0.00 | 57 | 1012.6 |
| 20260831011944 | 90 | 165 | 0.0 | 1.0 | 0.00 | 0.00 | 0.00 | 56 | 1012.5 |
| 20260831011439 | 90 | 185 | 0.0 | 2.0 | 0.00 | 0.00 | 0.00 | 56 | 1012.6 |
| 20260831010936 | 91 | 154 | 1.0 | 4.0 | 0.00 | 0.00 | 0.00 | 55 | 1012.6 |
| 20260831010436 | 91 | 158 | 0.0 | 3.0 | 0.00 | 0.00 | 0.00 | 55 | 1012.3 |
| 20260831005931 | 91 | 134 | 4.0 | 4.0 | 0.00 | 0.00 | 0.00 | 55 | 1012.3 |
| 20260831005427 | 92 | 86 | 0.0 | 4.0 | 0.00 | 0.00 | 0.00 | 54 | 1012.4 |
| 20260831004926 | 92 | 165 | 3.0 | 3.0 | 0.00 | 0.00 | 0.00 | 53 | 1012.4 |
| 20260831004423 | 93 | 148 | 0.0 | 4.0 | 0.00 | 0.00 | 0.00 | 53 | 1012.2 |
| 20260831003918 | 93 | 151 | 0.0 | 4.0 | 0.00 | 0.00 | 0.00 | 52 | 1012.3 |
| 20260831003413 | 94 | 180 | 1.0 | 5.0 | 0.00 | 0.00 | 0.00 | 51 | 1012.4 |
| 20260831002908 | 94 | 215 | 0.0 | 4.0 | 0.00 | 0.00 | 0.00 | 51 | 1012.0 |
| 20260831002407 | 94 | 220 | 2.0 | 4.0 | 0.00 | 0.00 | 0.00 | 50 | 1012.0 |
| 20260831001903 | 95 | 75 | 3.0 | 4.0 | 0.00 | 0.00 | 0.00 | 49 | 1012.3 |
| 20260831001357 | 96 | 139 | 2.0 | 4.0 | 0.00 | 0.00 | 0.00 | 48 | 1012.2 |
| 20260831000855 | 96 | 143 | 2.0 | 7.0 | 0.00 | 0.00 | 0.00 | 48 | 1012.1 |
| 20260831000350 | 96 | 99 | 2.0 | 4.0 | 0.00 | 0.00 | 0.00 | 46 | 1012.2 |
| 20260830235848 | 96 | 79 | 2.0 | 3.0 | 0.00 | 0.00 | 0.00 | 46 | 1012.3 |
| 20260830235343 | 97 | 203 | 2.0 | 5.0 | 0.00 | 0.00 | 0.00 | 45 | 1012.2 |
| 20260830234839 | 97 | 246 | 0.0 | 4.0 | 0.00 | 0.00 | 0.00 | 45 | 1012.2 |
| 20260830234334 | 97 | 174 | 3.0 | 5.0 | 0.00 | 0.00 | 0.00 | 45 | 1012.4 |
| 20260830233830 | 97 | 147 | 3.0 | 6.0 | 0.00 | 0.00 | 0.00 | 45 | 1012.3 |
| 20260830233325 | 98 | 133 | 3.0 | 5.0 | 0.00 | 0.00 | 0.00 | 44 | 1012.4 |
| 20260830232821 | 98 | 150 | 4.0 | 5.0 | 0.00 | 0.00 | 0.00 | 44 | 1012.3 |
| 20260830232316 | 98 | 85 | 2.0 | 6.0 | 0.00 | 0.00 | 0.00 | 44 | 1012.2 |
| 20260830231813 | 98 | 180 | 2.0 | 8.0 | 0.00 | 0.00 | 0.00 | 44 | 1012.1 |
| 20260830231313 | 98 | 177 | 2.0 | 5.0 | 0.00 | 0.00 | 0.00 | 43 | 1012.1 |
| 20260830230807 | 98 | 169 | 3.0 | 5.0 | 0.00 | 0.00 | 0.00 | 44 | 1012.2 |
| 20260830230303 | 98 | 159 | 3.0 | 4.0 | 0.00 | 0.00 | 0.00 | 43 | 1012.3 |
| 20260830225802 | 99 | 153 | 6.0 | 6.0 | 0.00 | 0.00 | 0.00 | 43 | 1012.3 |
| 20260830225257 | 99 | 166 | 1.0 | 6.0 | 0.00 | 0.00 | 0.00 | 44 | 1012.4 |
| 20260830224756 | 99 | 117 | 0.0 | 5.0 | 0.00 | 0.00 | 0.00 | 43 | 1012.3 |
| 20260830224251 | 99 | 168 | 2.0 | 5.0 | 0.00 | 0.00 | 0.00 | 43 | 1012.3 |
| 20260830223748 | 99 | 168 | 2.0 | 6.0 | 0.00 | 0.00 | 0.00 | 42 | 1012.4 |
| 20260830223244 | 99 | 216 | 2.0 | 9.0 | 0.00 | 0.00 | 0.00 | 43 | 1012.5 |
| 20260830222738 | 98 | 90 | 1.0 | 5.0 | 0.00 | 0.00 | 0.00 | 43 | 1012.2 |
| 20260830222233 | 98 | 77 | 1.0 | 8.0 | 0.00 | 0.00 | 0.00 | 42 | 1012.4 |
| 20260830221729 | 100 | 70 | 4.0 | 6.0 | 0.00 | 0.00 | 0.00 | 43 | 1012.5 |
| 20260830221226 | 98 | 109 | 2.0 | 6.0 | 0.00 | 0.00 | 0.00 | 45 | 1012.1 |
| 20260830220721 | 99 | 83 | 1.0 | 3.0 | 0.00 | 0.00 | 0.00 | 43 | 1012.4 |
| 20260830220220 | 99 | 151 | 0.0 | 9.0 | 0.00 | 0.00 | 0.00 | 44 | 1012.5 |
| 20260830215719 | 99 | 229 | 3.0 | 4.0 | 0.00 | 0.00 | 0.00 | 42 | 1012.9 |
| 20260830215213 | 98 | 66 | 6.0 | 6.0 | 0.00 | 0.00 | 0.00 | 43 | 1012.7 |
| 20260830214708 | 98 | 129 | 3.0 | 9.0 | 0.00 | 0.00 | 0.00 | 44 | 1012.6 |
| 20260830214203 | 99 | 84 | 8.0 | 8.0 | 0.00 | 0.00 | 0.00 | 43 | 1013.0 |
| 20260830213702 | 100 | 202 | 2.0 | 5.0 | 0.00 | 0.00 | 0.00 | 44 | 1013.0 |
| 20260830213157 | 99 | 225 | 3.0 | 5.0 | 0.00 | 0.00 | 0.00 | 43 | 1012.7 |
| 20260830212653 | 99 | 201 | 5.0 | 11.0 | 0.00 | 0.00 | 0.00 | 42 | 1012.7 |
| 20260830212149 | 100 | 183 | 3.0 | 5.0 | 0.00 | 0.00 | 0.00 | 42 | 1012.9 |
| 20260830211648 | 99 | 231 | 8.0 | 11.0 | 0.00 | 0.00 | 0.00 | 43 | 1013.0 |
| 20260830211147 | 100 | 158 | 6.0 | 8.0 | 0.00 | 0.00 | 0.00 | 43 | 1013.0 |
| 20260830210643 | 99 | 115 | 3.0 | 6.0 | 0.00 | 0.00 | 0.00 | 45 | 1013.0 |
| 20260830210143 | 99 | 246 | 0.0 | 3.0 | 0.00 | 0.00 | 0.00 | 44 | 1013.1 |
| 20260830205640 | 100 | 182 | 3.0 | 6.0 | 0.00 | 0.00 | 0.00 | 43 | 1013.1 |
| 20260830205135 | 99 | 141 | 3.0 | 5.0 | 0.00 | 0.00 | 0.00 | 43 | 1013.4 |
| 20260830204635 | 99 | 227 | 4.0 | 7.0 | 0.00 | 0.00 | 0.00 | 44 | 1013.5 |
| 20260830204134 | 99 | 133 | 0.0 | 7.0 | 0.00 | 0.00 | 0.00 | 45 | 1013.5 |
| 20260830203631 | 98 | 228 | 6.0 | 6.0 | 0.00 | 0.00 | 0.00 | 45 | 1013.8 |
| 20260830203130 | 98 | 163 | 4.0 | 5.0 | 0.00 | 0.00 | 0.00 | 45 | 1013.8 |
| 20260830202625 | 98 | 180 | 0.0 | 9.0 | 0.00 | 0.00 | 0.00 | 45 | 1013.8 |
| 20260830202120 | 98 | 197 | 2.0 | 9.0 | 0.00 | 0.00 | 0.00 | 45 | 1013.9 |
| 20260830201620 | 99 | 151 | 2.0 | 6.0 | 0.00 | 0.00 | 0.00 | 44 | 1014.0 |
| 20260830201115 | 98 | 95 | 4.0 | 6.0 | 0.00 | 0.00 | 0.00 | 45 | 1014.1 |
| 20260830200611 | 99 | 159 | 8.0 | 8.0 | 0.00 | 0.00 | 0.00 | 44 | 1014.1 |
| 20260830200110 | 98 | 198 | 3.0 | 6.0 | 0.00 | 0.00 | 0.00 | 46 | 1014.4 |
| 20260830195605 | 99 | 180 | 0.0 | 5.0 | 0.00 | 0.00 | 0.00 | 44 | 1014.2 |
| 20260830195103 | 98 | 216 | 4.0 | 8.0 | 0.00 | 0.00 | 0.00 | 46 | 1014.2 |
| 20260830194602 | 98 | 105 | 1.0 | 7.0 | 0.00 | 0.00 | 0.00 | 45 | 1014.3 |
| 20260830194057 | 98 | 126 | 2.0 | 6.0 | 0.00 | 0.00 | 0.00 | 47 | 1014.5 |
| 20260830193556 | 98 | 130 | 4.0 | 7.0 | 0.00 | 0.00 | 0.00 | 46 | 1014.4 |
| 20260830193051 | 98 | 158 | 8.0 | 8.0 | 0.00 | 0.00 | 0.00 | 47 | 1014.5 |
| 20260830192547 | 96 | 69 | 3.0 | 6.0 | 0.00 | 0.00 | 0.00 | 49 | 1014.8 |
| 20260830192042 | 98 | 103 | 3.0 | 6.0 | 0.00 | 0.00 | 0.00 | 48 | 1014.9 |
| 20260830191537 | 97 | 180 | 2.0 | 7.0 | 0.00 | 0.00 | 0.00 | 47 | 1014.7 |
| 20260830191032 | 97 | 199 | 4.0 | 11.0 | 0.00 | 0.00 | 0.00 | 49 | 1014.9 |
| 20260830190527 | 95 | 90 | 0.0 | 4.0 | 0.00 | 0.00 | 0.00 | 52 | 1015.0 |
| 20260830190022 | 95 | 206 | 2.0 | 7.0 | 0.00 | 0.00 | 0.00 | 52 | 1015.2 |
| 20260830185516 | 95 | 225 | 9.0 | 10.0 | 0.00 | 0.00 | 0.00 | 52 | 1015.4 |
| 20260830185012 | 97 | 239 | 3.0 | 3.0 | 0.00 | 0.00 | 0.00 | 50 | 1015.3 |
| 20260830184510 | 97 | 177 | 3.0 | 9.0 | 0.00 | 0.00 | 0.00 | 50 | 1015.3 |
| 20260830183959 | 95 | 21 | 2.0 | 7.0 | 0.00 | 0.00 | 0.00 | 53 | 1015.3 |
| 20260830183454 | 97 | 157 | 1.0 | 6.0 | 0.00 | 0.00 | 0.00 | 51 | 1015.6 |
| 20260830182949 | 95 | 90 | 1.0 | 7.0 | 0.00 | 0.00 | 0.00 | 54 | 1015.6 |
| 20260830182444 | 95 | 139 | 4.0 | 6.0 | 0.00 | 0.00 | 0.00 | 55 | 1015.7 |
| 20260830181941 | 95 | 203 | 1.0 | 9.0 | 0.00 | 0.00 | 0.00 | 53 | 1015.7 |
| 20260830181437 | 93 | 159 | 3.0 | 6.0 | 0.00 | 0.00 | 0.00 | 58 | 1015.8 |
| 20260830180931 | 92 | 224 | 8.0 | 10.0 | 0.00 | 0.00 | 0.00 | 59 | 1015.9 |
| 20260830180430 | 93 | 154 | 0.0 | 3.0 | 0.00 | 0.00 | 0.00 | 58 | 1016.0 |
| 20260830175929 | 92 | 233 | 3.0 | 4.0 | 0.00 | 0.00 | 0.00 | 59 | 1016.1 |
| 20260830175423 | 94 | 175 | 3.0 | 7.0 | 0.00 | 0.00 | 0.00 | 58 | 1016.2 |
| 20260830174918 | 93 | 210 | 2.0 | 8.0 | 0.00 | 0.00 | 0.00 | 60 | 1016.4 |
| 20260830174414 | 93 | 101 | 2.0 | 4.0 | 0.00 | 0.00 | 0.00 | 59 | 1016.2 |
| 20260830173909 | 93 | 217 | 4.0 | 7.0 | 0.00 | 0.00 | 0.00 | 60 | 1016.4 |
| 20260830173404 | 91 | 229 | 3.0 | 4.0 | 0.00 | 0.00 | 0.00 | 64 | 1016.3 |
| 20260830172900 | 92 | 18 | 0.0 | 4.0 | 0.00 | 0.00 | 0.00 | 62 | 1016.4 |
| 20260830172356 | 92 | 221 | 4.0 | 12.0 | 0.00 | 0.00 | 0.00 | 62 | 1016.7 |
| 20260830171852 | 92 | 258 | 3.0 | 7.0 | 0.00 | 0.00 | 0.00 | 63 | 1016.7 |
| 20260830171347 | 92 | 246 | 3.0 | 9.0 | 0.00 | 0.00 | 0.00 | 63 | 1016.5 |
| 20260830170842 | 92 | 239 | 8.0 | 13.0 | 0.00 | 0.00 | 0.00 | 63 | 1016.9 |
| 20260830170341 | 92 | 157 | 2.0 | 5.0 | 0.00 | 0.00 | 0.00 | 65 | 1016.9 |
| 20260830165840 | 92 | 244 | 9.0 | 10.0 | 0.00 | 0.00 | 0.00 | 64 | 1016.9 |
| 20260830165336 | 92 | 312 | 0.0 | 8.0 | 0.00 | 0.00 | 0.00 | 65 | 1017.1 |
| 20260830164832 | 93 | 161 | 0.0 | 13.0 | 0.00 | 0.00 | 0.00 | 64 | 1017.3 |
| 20260830164328 | 91 | 180 | 1.0 | 7.0 | 0.00 | 0.00 | 0.00 | 66 | 1017.3 |
| 20260830163825 | 91 | 209 | 4.0 | 6.0 | 0.00 | 0.00 | 0.00 | 68 | 1017.2 |
| 20260830163320 | 91 | 222 | 7.0 | 9.0 | 0.00 | 0.00 | 0.00 | 70 | 1017.5 |
| 20260830162814 | 89 | 244 | 4.0 | 10.0 | 0.00 | 0.00 | 0.00 | 72 | 1017.5 |
| 20260830162311 | 88 | 240 | 3.0 | 7.0 | 0.00 | 0.00 | 0.00 | 75 | 1017.4 |
| 20260830161806 | 89 | 230 | 8.0 | 8.0 | 0.00 | 0.00 | 0.00 | 73 | 1017.0 |
| 20260830161305 | 88 | 162 | 3.0 | 7.0 | 0.00 | 0.00 | 0.00 | 76 | 1017.1 |
| 20260830160801 | 90 | 236 | 5.0 | 9.0 | 0.00 | 0.00 | 0.00 | 75 | 1017.3 |
| 20260830160301 | 88 | 241 | 4.0 | 9.0 | 0.00 | 0.00 | 0.00 | 76 | 1017.1 |
| 20260830155757 | 89 | 228 | 9.0 | 11.0 | 0.00 | 0.00 | 0.00 | 76 | 1017.4 |
| 20260830155253 | 88 | 325 | 1.0 | 6.0 | 0.00 | 0.00 | 0.00 | 77 | 1017.2 |
| 20260830154753 | 87 | 256 | 3.0 | 6.0 | 0.00 | 0.00 | 0.00 | 79 | 1017.3 |
| 20260830154249 | 86 | 203 | 2.0 | 6.0 | 0.00 | 0.00 | 0.00 | 81 | 1017.2 |
| 20260830153745 | 87 | 206 | 2.0 | 6.0 | 0.00 | 0.00 | 0.00 | 78 | 1017.2 |
| 20260830153240 | 86 | 248 | 2.0 | 7.0 | 0.00 | 0.00 | 0.00 | 78 | 1017.2 |
| 20260830152739 | 86 | 180 | 0.0 | 3.0 | 0.00 | 0.00 | 0.00 | 80 | 1017.0 |
| 20260830152234 | 86 | 207 | 7.0 | 8.0 | 0.00 | 0.00 | 0.00 | 81 | 1017.2 |
| 20260830151728 | 85 | 234 | 7.0 | 7.0 | 0.00 | 0.00 | 0.00 | 82 | 1017.1 |
| 20260830151227 | 85 | 234 | 5.0 | 11.0 | 0.00 | 0.00 | 0.00 | 85 | 1017.3 |
| 20260830150723 | 84 | 213 | 3.0 | 8.0 | 0.00 | 0.00 | 0.00 | 86 | 1017.2 |
| 20260830150217 | 85 | 221 | 5.0 | 6.0 | 0.00 | 0.00 | 0.00 | 86 | 1017.2 |
| 20260830145718 | 84 | 166 | 3.0 | 7.0 | 0.00 | 0.00 | 0.00 | 89 | 1017.2 |
| 20260830145213 | 82 | 210 | 3.0 | 6.0 | 0.00 | 0.00 | 0.00 | 91 | 1017.2 |
| 20260830144708 | 82 | 223 | 4.0 | 8.0 | 0.00 | 0.00 | 0.00 | 90 | 1017.2 |
| 20260830144203 | 83 | 206 | 3.0 | 6.0 | 0.00 | 0.00 | 0.00 | 90 | 1017.3 |
| 20260830143700 | 83 | 225 | 3.0 | 8.0 | 0.00 | 0.00 | 0.00 | 90 | 1016.9 |
| 20260830143157 | 82 | 226 | 4.0 | 7.0 | 0.00 | 0.00 | 0.00 | 93 | 1017.2 |
| 20260830142653 | 82 | 230 | 6.0 | 9.0 | 0.00 | 0.00 | 0.00 | 92 | 1017.4 |
| 20260830142152 | 82 | 265 | 2.0 | 7.0 | 0.00 | 0.00 | 0.00 | 92 | 1017.4 |
| 20260830141648 | 82 | 241 | 3.0 | 4.0 | 0.00 | 0.00 | 0.00 | 93 | 1017.5 |
| 20260830141143 | 81 | 160 | 0.0 | 5.0 | 0.00 | 0.00 | 0.00 | 95 | 1017.3 |
| 20260830140638 | 81 | 227 | 3.0 | 5.0 | 0.00 | 0.00 | 0.00 | 95 | 1017.1 |
| 20260830140133 | 80 | 208 | 4.0 | 7.0 | 0.00 | 0.00 | 0.00 | 96 | 1017.1 |
| 20260830135628 | 80 | 231 | 3.0 | 6.0 | 0.00 | 0.00 | 0.00 | 96 | 1016.9 |
| 20260830135123 | 80 | 192 | 2.0 | 5.0 | 0.00 | 0.00 | 0.00 | 96 | 1017.1 |
| 20260830134619 | 80 | 238 | 0.0 | 3.0 | 0.00 | 0.00 | 0.00 | 96 | 1017.0 |
| 20260830134114 | 80 | 195 | 0.0 | 2.0 | 0.00 | 0.00 | 0.00 | 97 | 1017.0 |
| 20260830133609 | 79 | 246 | 0.0 | 2.0 | 0.00 | 0.00 | 0.00 | 97 | 1017.1 |
| 20260830133104 | 79 | 233 | 2.0 | 3.0 | 0.00 | 0.00 | 0.00 | 97 | 1016.9 |
| 20260830132601 | 79 | 160 | 0.0 | 2.0 | 0.00 | 0.00 | 0.00 | 99 | 1016.9 |
| 20260830132056 | 78 | 157 | 0.0 | 1.0 | 0.00 | 0.00 | 0.00 | 99 | 1016.7 |
| 20260830131555 | 77 | 145 | 0.0 | 1.0 | 0.00 | 0.00 | 0.00 | 99 | 1016.8 |
| 20260830131050 | 78 | 74 | 0.0 | 1.0 | 0.00 | 0.00 | 0.00 | 99 | 1016.7 |
| 20260830130544 | 77 | 0 | 0.0 | 0.0 | 0.00 | 0.00 | 0.00 | 99 | 1016.7 |
| 20260830130040 | 75 | 0 | 0.0 | 0.0 | 0.00 | 0.00 | 0.00 | 99 | 1016.6 |
| 20260830125534 | 74 | 270 | 0.0 | 0.0 | 0.00 | 0.00 | 0.00 | 99 | 1016.6 |
| 20260830125033 | 73 | 270 | 0.0 | 0.0 | 0.00 | 0.00 | 0.00 | 99 | 1016.8 |
| 20260830124532 | 73 | 270 | 0.0 | 0.0 | 0.00 | 0.00 | 0.00 | 99 | 1016.6 |
| 20260830124028 | 72 | 270 | 0.0 | 0.0 | 0.00 | 0.00 | 0.00 | 99 | 1016.5 |
| 20260830123525 | 72 | 270 | 0.0 | 0.0 | 0.00 | 0.00 | 0.00 | 99 | 1016.5 |
| 20260830123020 | 72 | 286 | 0.0 | 1.0 | 0.00 | 0.00 | 0.00 | 99 | 1016.6 |
| 20260830122516 | 72 | 270 | 0.0 | 1.0 | 0.00 | 0.00 | 0.00 | 99 | 1016.4 |
| 20260830122012 | 72 | 82 | 0.0 | 0.0 | 0.00 | 0.00 | 0.00 | 99 | 1016.4 |
| 20260830121507 | 71 | 74 | 0.0 | 0.0 | 0.00 | 0.00 | 0.00 | 99 | 1016.1 |
| 20260830121001 | 72 | 74 | 0.0 | 0.0 | 0.00 | 0.00 | 0.00 | 99 | 1016.2 |
| 20260830120456 | 71 | 74 | 0.0 | 0.0 | 0.00 | 0.00 | 0.00 | 99 | 1016.2 |
| 20260830115953 | 72 | 74 | 0.0 | 0.0 | 0.00 | 0.00 | 0.00 | 99 | 1016.0 |
| 20260830115449 | 72 | 74 | 0.0 | 0.0 | 0.00 | 0.00 | 0.00 | 99 | 1016.0 |
| 20260830114944 | 72 | 74 | 0.0 | 0.0 | 0.00 | 0.00 | 0.00 | 99 | 1015.9 |
| 20260830114440 | 72 | 90 | 0.0 | 0.0 | 0.00 | 0.00 | 0.00 | 99 | 1016.0 |
| 20260830113934 | 71 | 90 | 0.0 | 0.0 | 0.00 | 0.00 | 0.00 | 99 | 1016.0 |
| 20260830113430 | 72 | 90 | 0.0 | 0.0 | 0.00 | 0.00 | 0.00 | 99 | 1015.9 |
| 20260830112925 | 72 | 90 | 0.0 | 0.0 | 0.00 | 0.00 | 0.00 | 99 | 1015.8 |
| 20260830112421 | 73 | 90 | 0.0 | 0.0 | 0.00 | 0.00 | 0.00 | 99 | 1015.7 |
| 20260830111917 | 73 | 63 | 0.0 | 1.0 | 0.00 | 0.00 | 0.00 | 99 | 1015.8 |
| 20260830111412 | 72 | 270 | 0.0 | 0.0 | 0.00 | 0.00 | 0.00 | 99 | 1015.9 |
| 20260830110908 | 72 | 270 | 0.0 | 0.0 | 0.00 | 0.00 | 0.00 | 99 | 1015.8 |
| 20260830110404 | 73 | 81 | 0.0 | 0.0 | 0.00 | 0.00 | 0.00 | 99 | 1015.7 |
| 20260830105902 | 73 | 81 | 0.0 | 0.0 | 0.00 | 0.00 | 0.00 | 99 | 1015.7 |
| 20260830105359 | 73 | 114 | 0.0 | 1.0 | 0.00 | 0.00 | 0.00 | 99 | 1015.8 |
| 20260830104855 | 73 | 270 | 0.0 | 0.0 | 0.00 | 0.00 | 0.00 | 99 | 1015.6 |
| 20260830104352 | 73 | 270 | 0.0 | 0.0 | 0.00 | 0.00 | 0.00 | 99 | 1015.5 |
| 20260830103850 | 72 | 270 | 0.0 | 0.0 | 0.00 | 0.00 | 0.00 | 99 | 1015.7 |
| 20260830103347 | 72 | 270 | 0.0 | 0.0 | 0.00 | 0.00 | 0.00 | 99 | 1015.6 |
| 20260830102844 | 73 | 0 | 0.0 | 0.0 | 0.00 | 0.00 | 0.00 | 99 | 1015.9 |
| 20260830102340 | 72 | 0 | 0.0 | 0.0 | 0.00 | 0.00 | 0.00 | 99 | 1015.4 |
| 20260830101837 | 73 | 0 | 0.0 | 0.0 | 0.00 | 0.00 | 0.00 | 99 | 1015.6 |
| 20260830101332 | 73 | 0 | 0.0 | 0.0 | 0.00 | 0.00 | 0.00 | 99 | 1015.5 |
| 20260830100831 | 74 | 0 | 0.0 | 0.0 | 0.00 | 0.00 | 0.00 | 99 | 1015.7 |
| 20260830100325 | 74 | 0 | 0.0 | 1.0 | 0.00 | 0.00 | 0.00 | 99 | 1015.4 |
| 20260830095824 | 74 | 0 | 0.0 | 1.0 | 0.00 | 0.00 | 0.00 | 99 | 1015.5 |
| 20260830095321 | 74 | 0 | 0.0 | 0.0 | 0.00 | 0.00 | 0.00 | 99 | 1015.4 |
| 20260830094816 | 74 | 261 | 0.0 | 0.0 | 0.00 | 0.00 | 0.00 | 99 | 1015.2 |
| 20260830094312 | 75 | 261 | 0.0 | 0.0 | 0.00 | 0.00 | 0.00 | 99 | 1015.6 |
| 20260830093808 | 75 | 157 | 0.0 | 2.0 | 0.00 | 0.00 | 0.00 | 99 | 1015.5 |
| 20260830093303 | 75 | 217 | 0.0 | 2.0 | 0.00 | 0.00 | 0.00 | 99 | 1015.4 |
| 20260830092803 | 75 | 234 | 0.0 | 1.0 | 0.00 | 0.00 | 0.00 | 99 | 1015.4 |
| 20260830092259 | 75 | 246 | 1.0 | 1.0 | 0.00 | 0.00 | 0.00 | 99 | 1015.4 |
| 20260830091755 | 75 | 255 | 0.0 | 0.0 | 0.00 | 0.00 | 0.00 | 99 | 1015.2 |
| 20260830091255 | 75 | 255 | 0.0 | 0.0 | 0.00 | 0.00 | 0.00 | 99 | 1015.3 |
| 20260830090754 | 76 | 195 | 0.0 | 1.0 | 0.00 | 0.00 | 0.00 | 99 | 1015.3 |
| 20260830090250 | 76 | 262 | 0.0 | 1.0 | 0.00 | 0.00 | 0.00 | 99 | 1015.4 |
| 20260830085749 | 76 | 255 | 1.0 | 2.0 | 0.00 | 0.00 | 0.00 | 99 | 1015.3 |
| 20260830085245 | 76 | 270 | 0.0 | 0.0 | 0.00 | 0.00 | 0.00 | 98 | 1015.3 |
| 20260830084740 | 76 | 243 | 0.0 | 2.0 | 0.00 | 0.00 | 0.00 | 98 | 1015.3 |
| 20260830084235 | 76 | 261 | 0.0 | 0.0 | 0.00 | 0.00 | 0.00 | 98 | 1015.5 |
| 20260830083730 | 76 | 225 | 2.0 | 2.0 | 0.00 | 0.00 | 0.00 | 98 | 1015.4 |
| 20260830083226 | 76 | 243 | 0.0 | 2.0 | 0.00 | 0.00 | 0.00 | 97 | 1015.5 |
| 20260830082726 | 77 | 220 | 2.0 | 2.0 | 0.00 | 0.00 | 0.00 | 97 | 1015.5 |
| 20260830082221 | 77 | 261 | 0.0 | 2.0 | 0.00 | 0.00 | 0.00 | 97 | 1015.5 |
| 20260830081717 | 77 | 246 | 0.0 | 1.0 | 0.00 | 0.00 | 0.00 | 96 | 1015.4 |
| 20260830081216 | 77 | 254 | 0.0 | 2.0 | 0.00 | 0.00 | 0.00 | 96 | 1015.3 |
| 20260830080710 | 77 | 257 | 1.0 | 2.0 | 0.00 | 0.00 | 0.00 | 96 | 1015.4 |
| 20260830080207 | 77 | 145 | 0.0 | 2.0 | 0.00 | 0.00 | 0.00 | 96 | 1015.6 |
| 20260830075705 | 77 | 240 | 0.0 | 2.0 | 0.00 | 0.00 | 0.00 | 96 | 1015.3 |
| 20260830075202 | 77 | 257 | 1.0 | 2.0 | 0.00 | 0.00 | 0.00 | 95 | 1015.5 |
| 20260830074657 | 77 | 225 | 2.0 | 2.0 | 0.00 | 0.00 | 0.00 | 95 | 1015.4 |
| 20260830074152 | 78 | 240 | 0.0 | 2.0 | 0.00 | 0.00 | 0.00 | 95 | 1015.4 |
| 20260830073648 | 78 | 209 | 0.0 | 1.0 | 0.00 | 0.00 | 0.00 | 94 | 1015.7 |
| 20260830073144 | 78 | 261 | 0.0 | 2.0 | 0.00 | 0.00 | 0.00 | 94 | 1015.6 |
| 20260830072639 | 78 | 151 | 0.0 | 2.0 | 0.00 | 0.00 | 0.00 | 94 | 1015.5 |
| 20260830072138 | 78 | 255 | 0.0 | 1.0 | 0.00 | 0.00 | 0.00 | 93 | 1015.7 |
| 20260830071633 | 78 | 203 | 0.0 | 1.0 | 0.00 | 0.00 | 0.00 | 93 | 1015.8 |
| 20260830071131 | 78 | 200 | 0.0 | 2.0 | 0.00 | 0.00 | 0.00 | 92 | 1015.8 |
| 20260830070626 | 79 | 200 | 0.0 | 2.0 | 0.00 | 0.00 | 0.00 | 92 | 1015.7 |
| 20260830070122 | 79 | 209 | 0.0 | 1.0 | 0.00 | 0.00 | 0.00 | 91 | 1015.5 |
| 20260830065615 | 79 | 229 | 0.0 | 2.0 | 0.00 | 0.00 | 0.00 | 91 | 1015.7 |
| 20260830065114 | 79 | 201 | 0.0 | 3.0 | 0.00 | 0.00 | 0.00 | 91 | 1015.7 |
| 20260830064614 | 80 | 251 | 0.0 | 5.0 | 0.00 | 0.00 | 0.00 | 90 | 1015.8 |
| 20260830064109 | 80 | 228 | 2.0 | 5.0 | 0.00 | 0.00 | 0.00 | 89 | 1015.5 |
| 20260830063603 | 80 | 216 | 3.0 | 4.0 | 0.00 | 0.00 | 0.00 | 89 | 1015.8 |
| 20260830063103 | 80 | 218 | 2.0 | 6.0 | 0.00 | 0.00 | 0.00 | 89 | 1015.7 |
| 20260830062602 | 80 | 127 | 2.0 | 4.0 | 0.00 | 0.00 | 0.00 | 89 | 1015.6 |
| 20260830062057 | 80 | 185 | 0.0 | 5.0 | 0.00 | 0.00 | 0.00 | 88 | 1015.7 |
| 20260830061551 | 80 | 210 | 3.0 | 5.0 | 0.00 | 0.00 | 0.00 | 88 | 1015.7 |
| 20260830061048 | 81 | 230 | 4.0 | 5.0 | 0.00 | 0.00 | 0.00 | 88 | 1015.7 |
| 20260830060544 | 81 | 212 | 0.0 | 4.0 | 0.00 | 0.00 | 0.00 | 87 | 1015.7 |
| 20260830060040 | 81 | 230 | 4.0 | 7.0 | 0.00 | 0.00 | 0.00 | 87 | 1015.8 |
| 20260830055535 | 81 | 208 | 4.0 | 7.0 | 0.00 | 0.00 | 0.00 | 87 | 1015.6 |
| 20260830055031 | 81 | 230 | 3.0 | 5.0 | 0.00 | 0.00 | 0.00 | 87 | 1015.5 |
| 20260830054526 | 81 | 208 | 2.0 | 6.0 | 0.00 | 0.00 | 0.00 | 86 | 1015.5 |
| 20260830054022 | 81 | 235 | 3.0 | 5.0 | 0.00 | 0.00 | 0.00 | 86 | 1015.6 |
| 20260830053517 | 81 | 255 | 1.0 | 4.0 | 0.00 | 0.00 | 0.00 | 85 | 1015.7 |
| 20260830053016 | 81 | 198 | 1.0 | 4.0 | 0.00 | 0.00 | 0.00 | 85 | 1015.5 |
| 20260830052512 | 81 | 227 | 3.0 | 5.0 | 0.00 | 0.00 | 0.00 | 85 | 1015.6 |
| 20260830052012 | 81 | 228 | 2.0 | 4.0 | 0.00 | 0.00 | 0.00 | 84 | 1015.6 |
| 20260830051507 | 81 | 143 | 2.0 | 3.0 | 0.00 | 0.00 | 0.00 | 84 | 1015.5 |
| 20260830051002 | 82 | 204 | 2.0 | 5.0 | 0.00 | 0.00 | 0.00 | 84 | 1015.8 |
| 20260830050457 | 82 | 173 | 0.0 | 3.0 | 0.00 | 0.00 | 0.00 | 83 | 1015.6 |
| 20260830045955 | 82 | 173 | 1.0 | 3.0 | 0.00 | 0.00 | 0.00 | 83 | 1015.8 |
| 20260830045445 | 82 | 161 | 0.0 | 3.0 | 0.00 | 0.00 | 0.00 | 83 | 1015.7 |
| 20260830044944 | 82 | 221 | 2.0 | 3.0 | 0.00 | 0.00 | 0.00 | 83 | 1015.8 |
| 20260830044440 | 82 | 229 | 2.0 | 2.0 | 0.00 | 0.00 | 0.00 | 82 | 1015.4 |
| 20260830043934 | 82 | 168 | 0.0 | 0.0 | 0.00 | 0.00 | 0.00 | 81 | 1015.8 |
| 20260830043429 | 82 | 150 | 2.0 | 2.0 | 0.00 | 0.00 | 0.00 | 81 | 1016.0 |
| 20260830042926 | 83 | 174 | 1.0 | 2.0 | 0.00 | 0.00 | 0.00 | 80 | 1015.8 |
| 20260830042421 | 83 | 249 | 1.0 | 2.0 | 0.00 | 0.00 | 0.00 | 80 | 1015.6 |
| 20260830041920 | 83 | 157 | 0.0 | 3.0 | 0.00 | 0.00 | 0.00 | 80 | 1015.8 |
| 20260830041419 | 83 | 165 | 0.0 | 2.0 | 0.00 | 0.00 | 0.00 | 79 | 1015.7 |
| 20260830040914 | 84 | 218 | 2.0 | 4.0 | 0.00 | 0.00 | 0.00 | 79 | 1015.4 |
| 20260830040411 | 84 | 257 | 0.0 | 3.0 | 0.00 | 0.00 | 0.00 | 78 | 1015.6 |
| 20260830035909 | 84 | 219 | 0.0 | 4.0 | 0.00 | 0.00 | 0.00 | 78 | 1015.5 |
| 20260830035408 | 84 | 231 | 2.0 | 3.0 | 0.00 | 0.00 | 0.00 | 77 | 1015.5 |
| 20260830034904 | 84 | 237 | 0.0 | 3.0 | 0.00 | 0.00 | 0.00 | 77 | 1015.3 |
| 20260830034359 | 84 | 210 | 2.0 | 4.0 | 0.00 | 0.00 | 0.00 | 77 | 1015.4 |
| 20260830033854 | 85 | 229 | 0.0 | 5.0 | 0.00 | 0.00 | 0.00 | 76 | 1015.4 |
| 20260830033349 | 85 | 180 | 2.0 | 4.0 | 0.00 | 0.00 | 0.00 | 76 | 1015.6 |
| 20260830032845 | 85 | 175 | 2.0 | 6.0 | 0.00 | 0.00 | 0.00 | 76 | 1015.5 |
| 20260830032338 | 85 | 225 | 4.0 | 5.0 | 0.00 | 0.00 | 0.00 | 76 | 1015.5 |
| 20260830031834 | 85 | 237 | 0.0 | 4.0 | 0.00 | 0.00 | 0.00 | 76 | 1015.4 |
| 20260830031329 | 85 | 208 | 2.0 | 5.0 | 0.00 | 0.00 | 0.00 | 75 | 1015.2 |